Time,TemperatureF,DewpointF,PressureIn,WindDirection,WindDirectionDegrees,WindSpeedMPH,WindSpeedGustMPH,Humidity,HourlyPrecipIn,Conditions,Clouds,dailyrainin,SoftwareType,DateUTC
2013-01-30 00:00:00,57.4,47.3,28.73,SE,141,0.0,0.0,69,-99.99,,,-99.99,WSDL version 420,2013-01-30 05:00:00,
2013-01-30 00:03:00,57.4,47.3,28.73,SE,126,0.0,0.0,69,-99.99,,,-99.99,WSDL version 420,2013-01-30 05:03:00,
2013-01-30 00:06:00,57.5,47.4,28.73,SE,126,1.5,2.2,69,-99.99,,,-99.99,WSDL version 420,2013-01-30 05:06:00,
2013-01-30 00:09:00,57.5,47.4,28.73,SSE,148,1.6,2.2,69,-99.99,,,-99.99,WSDL version 420,2013-01-30 05:09:00,
2013-01-30 00:15:00,57.9,48.5,28.73,SSE,148,1.6,2.2,71,-99.99,,,-99.99,WSDL version 420,2013-01-30 05:15:00,
2013-01-30 00:21:00,58.0,49.3,28.73,South,171,3.1,3.1,73,-99.99,,,-99.99,WSDL version 420,2013-01-30 05:21:00,
2013-01-30 00:27:00,57.9,49.3,28.73,South,171,3.1,3.1,73,-99.99,,,-99.99,WSDL version 420,2013-01-30 05:27:00,
2013-01-30 00:33:00,57.9,49.5,28.73,SSE,148,0.0,3.1,73,-99.99,,,-99.99,WSDL version 420,2013-01-30 05:33:00,
2013-01-30 00:39:00,57.8,49.3,28.73,SSE,148,2.0,2.0,73,-99.99,,,-99.99,WSDL version 420,2013-01-30 05:39:00,
2013-01-30 00:45:00,57.9,49.9,28.70,North,0,0.0,2.5,75,-99.99,,,-99.99,WSDL version 420,2013-01-30 05:45:00,
2013-01-30 06:24:00,59.2,55.7,28.58,SSW,193,8.1,8.1,88,-99.99,,,-99.99,WSDL version 420,2013-01-30 11:24:00,
2013-01-30 06:33:00,59.4,55.9,28.58,South,178,7.8,8.1,88,-99.99,,,-99.99,WSDL version 420,2013-01-30 11:33:00,
2013-01-30 06:40:00,59.4,55.9,28.58,SSW,193,3.1,10.7,88,-99.99,,,-99.99,WSDL version 420,2013-01-30 11:40:00,
2013-01-30 06:46:00,59.4,55.9,28.58,SSW,193,6.0,6.5,88,-99.99,,,-99.99,WSDL version 420,2013-01-30 11:46:00,
2013-01-30 06:52:00,59.6,56.1,28.58,SSE,148,4.9,6.5,88,-99.99,,,-99.99,WSDL version 420,2013-01-30 11:52:00,
2013-01-30 06:58:00,59.7,56.3,28.58,SW,231,6.5,7.8,89,-99.99,,,-99.99,WSDL version 420,2013-01-30 11:58:00,
2013-01-30 07:06:00,59.7,56.5,28.58,SSW,193,9.2,10.5,89,-99.99,,,-99.99,WSDL version 420,2013-01-30 12:06:00,
2013-01-30 07:16:00,59.7,56.5,28.58,South,171,6.7,10.3,89,-99.99,,,-99.99,WSDL version 420,2013-01-30 12:16:00,
2013-01-30 07:22:00,59.8,56.7,28.58,SSW,193,8.9,10.5,90,-99.99,,,-99.99,WSDL version 420,2013-01-30 12:22:00,
2013-01-30 07:28:00,59.8,56.8,28.58,SSW,193,3.6,10.5,90,-99.99,,,-99.99,WSDL version 420,2013-01-30 12:28:00,
2013-01-30 07:34:00,59.9,56.9,28.58,South,187,4.9,12.1,90,-99.99,,,-99.99,WSDL version 420,2013-01-30 12:34:00,
2013-01-30 08:21:00,60.5,57.7,28.55,SSW,201,6.9,10.7,91,-99.99,,,-99.99,WSDL version 420,2013-01-30 13:21:00,
2013-01-30 09:09:00,61.2,57.2,28.52,North,0,0.0,14.1,87,-99.99,,,-99.99,WSDL version 420,2013-01-30 14:09:00,
2013-01-30 09:17:00,61.2,57.2,28.52,SSW,204,8.4,14.1,87,-99.99,,,-99.99,WSDL version 420,2013-01-30 14:17:00,
2013-01-30 11:14:00,61.7,55.4,28.49,SW,216,7.3,12.5,80,-99.99,,,-99.99,WSDL version 420,2013-01-30 16:14:00,
2013-01-30 11:20:00,61.9,55.5,28.49,North,0,0.0,11.0,80,-99.99,,,-99.99,WSDL version 420,2013-01-30 16:20:00,
2013-01-30 11:29:00,61.9,55.3,28.49,SW,216,6.5,6.5,79,-99.99,,,-99.99,WSDL version 420,2013-01-30 16:29:00,
2013-01-30 11:35:00,61.9,55.3,28.49,SW,216,6.5,6.5,79,-99.99,,,-99.99,WSDL version 420,2013-01-30 16:35:00,
2013-01-30 11:45:00,62.1,55.2,28.47,SW,216,8.1,8.1,78,-99.99,,,-99.99,WSDL version 420,2013-01-30 16:45:00,
2013-01-30 11:51:00,62.1,55.2,28.47,SW,216,8.1,8.1,78,-99.99,,,-99.99,WSDL version 420,2013-01-30 16:51:00,
2013-01-30 11:57:00,62.3,55.3,28.47,North,-999,-999.0,-999.0,78,-99.99,,,-99.99,WSDL version 420,2013-01-30 16:57:00,
2013-01-30 12:03:00,62.3,54.9,28.47,SW,216,9.8,9.8,77,-99.99,,,-99.99,WSDL version 420,2013-01-30 17:03:00,
2013-01-30 12:09:00,62.3,55.0,28.47,North,0,0.0,9.8,77,-99.99,,,-99.99,WSDL version 420,2013-01-30 17:09:00,
2013-01-30 12:18:00,62.6,55.0,28.44,North,-999,-999.0,-999.0,76,-99.99,,,-99.99,WSDL version 420,2013-01-30 17:18:00,
2013-01-30 12:24:00,62.6,54.5,28.44,North,-999,-999.0,-999.0,75,-99.99,,,-99.99,WSDL version 420,2013-01-30 17:24:00,
2013-01-30 12:30:00,62.6,54.5,28.44,North,-999,-999.0,-999.0,75,-99.99,,,-99.99,WSDL version 420,2013-01-30 17:30:00,
2013-01-30 12:36:00,62.7,54.6,28.44,North,-999,-999.0,-999.0,75,-99.99,,,-99.99,WSDL version 420,2013-01-30 17:36:00,
2013-01-30 12:44:00,62.8,54.4,28.41,North,-999,-999.0,-999.0,74,-99.99,,,-99.99,WSDL version 420,2013-01-30 17:44:00,
2013-01-30 12:50:00,62.8,54.4,28.41,North,-999,-999.0,-999.0,74,-99.99,,,-99.99,WSDL version 420,2013-01-30 17:50:00,
2013-01-30 12:56:00,63.0,54.3,28.41,North,-999,-999.0,-999.0,73,-99.99,,,-99.99,WSDL version 420,2013-01-30 17:56:00,
2013-01-30 13:02:00,63.0,54.3,28.41,North,-999,-999.0,-999.0,73,-99.99,,,-99.99,WSDL version 420,2013-01-30 18:02:00,
2013-01-30 13:08:00,63.3,54.1,28.41,North,-999,-999.0,-999.0,72,-99.99,,,-99.99,WSDL version 420,2013-01-30 18:08:00,
2013-01-30 13:14:00,63.3,54.1,28.41,North,-999,-999.0,-999.0,72,-99.99,,,-99.99,WSDL version 420,2013-01-30 18:14:00,
2013-01-30 13:20:00,63.3,54.1,28.41,SW,216,5.4,12.5,72,-99.99,,,-99.99,WSDL version 420,2013-01-30 18:20:00,
2013-01-30 13:26:00,63.5,54.0,28.41,SW,216,5.4,12.5,71,-99.99,,,-99.99,WSDL version 420,2013-01-30 18:26:00,
2013-01-30 13:32:00,63.5,53.8,28.38,SSW,193,10.3,10.3,70,-99.99,,,-99.99,WSDL version 420,2013-01-30 18:32:00,
2013-01-30 13:38:00,63.5,53.9,28.38,South,171,8.1,11.0,70,-99.99,,,-99.99,WSDL version 420,2013-01-30 18:38:00,
2013-01-30 13:44:00,63.3,53.9,28.38,WSW,238,13.0,13.0,71,-99.99,,,-99.99,WSDL version 420,2013-01-30 18:44:00,
2013-01-30 13:50:00,63.4,54.1,28.38,SSE,148,6.5,13.0,72,-99.99,,,-99.99,WSDL version 420,2013-01-30 18:50:00,
2013-01-30 13:56:00,63.5,54.3,28.38,SSE,148,6.5,13.0,72,-99.99,,,-99.99,WSDL version 420,2013-01-30 18:56:00,
2013-01-30 14:02:00,63.3,54.4,28.38,WSW,238,14.1,14.1,73,-99.99,,,-99.99,WSDL version 420,2013-01-30 19:02:00,
2013-01-30 14:08:00,63.3,54.7,28.38,SSW,193,5.8,14.1,73,-99.99,,,-99.99,WSDL version 420,2013-01-30 19:08:00,
2013-01-30 14:14:00,63.3,54.5,28.38,North,0,0.0,5.8,73,-99.99,,,-99.99,WSDL version 420,2013-01-30 19:14:00,
2013-01-30 14:20:00,63.5,54.6,28.38,SSW,193,6.5,6.5,73,-99.99,,,-99.99,WSDL version 420,2013-01-30 19:20:00,
2013-01-30 14:26:00,63.4,54.5,28.38,SSW,193,6.5,6.5,73,-99.99,,,-99.99,WSDL version 420,2013-01-30 19:26:00,
2013-01-30 14:32:00,63.5,54.6,28.35,North,-999,-999.0,-999.0,73,-99.99,,,-99.99,WSDL version 420,2013-01-30 19:32:00,
2013-01-30 14:38:00,63.3,54.5,28.35,North,-999,-999.0,-999.0,73,-99.99,,,-99.99,WSDL version 420,2013-01-30 19:38:00,
2013-01-30 14:44:00,63.3,54.8,28.35,North,-999,-999.0,-999.0,74,-99.99,,,-99.99,WSDL version 420,2013-01-30 19:44:00,
2013-01-30 14:50:00,63.3,55.1,28.35,SW,216,5.8,5.8,75,-99.99,,,-99.99,WSDL version 420,2013-01-30 19:50:00,
2013-01-30 16:37:00,61.9,56.1,28.29,North,-999,-999.0,-999.0,81,-99.99,,,-99.99,WSDL version 420,2013-01-30 21:37:00,
2013-01-30 17:59:00,60.6,57.4,28.20,SSW,201,4.8,8.9,89,-99.99,,,-99.99,WSDL version 420,2013-01-30 22:59:00,
2013-01-30 20:54:00,58.1,57.5,28.17,SSE,163,4.2,5.8,98,-99.99,,,-99.99,WSDL version 420,2013-01-31 01:54:00,
2013-01-30 21:00:00,58.1,57.5,28.17,South,176,4.3,5.8,98,-99.99,,,-99.99,WSDL version 420,2013-01-31 02:00:00,
2013-01-30 21:06:00,57.9,57.3,28.17,South,182,4.8,6.5,98,-99.99,,,-99.99,WSDL version 420,2013-01-31 02:06:00,
2013-01-30 21:12:00,57.9,57.3,28.17,SW,221,3.5,6.5,98,-99.99,,,-99.99,WSDL version 420,2013-01-31 02:12:00,
2013-01-30 21:18:00,57.8,57.2,28.20,West,276,13.0,15.2,98,-99.99,,,-99.99,WSDL version 420,2013-01-31 02:18:00,
2013-01-30 21:24:00,57.0,56.4,28.20,WNW,283,8.8,15.2,98,-99.99,,,-99.99,WSDL version 420,2013-01-31 02:24:00,
2013-01-30 21:30:00,56.3,55.4,28.17,NW,306,2.8,12.3,97,-99.99,,,-99.99,WSDL version 420,2013-01-31 02:30:00,
2013-01-30 21:36:00,55.9,55.0,28.17,WNW,291,1.9,9.6,97,-99.99,,,-99.99,WSDL version 420,2013-01-31 02:36:00,
2013-01-30 21:42:00,55.5,54.7,28.17,NW,306,3.7,6.3,97,-99.99,,,-99.99,WSDL version 420,2013-01-31 02:42:00,
2013-01-30 21:48:00,55.1,54.2,28.20,WNW,283,3.4,7.8,96,-99.99,,,-99.99,WSDL version 420,2013-01-31 02:48:00,
2013-01-30 21:54:00,54.9,53.8,28.20,SW,221,2.6,7.8,96,-99.99,,,-99.99,WSDL version 420,2013-01-31 02:54:00,
2013-01-30 22:00:00,54.4,53.3,28.20,West,272,1.8,4.5,96,-99.99,,,-99.99,WSDL version 420,2013-01-31 03:00:00,
2013-01-30 22:06:00,54.0,52.7,28.20,WNW,283,1.3,4.5,95,-99.99,,,-99.99,WSDL version 420,2013-01-31 03:06:00,
2013-01-30 22:12:00,53.6,52.2,28.20,SSW,210,3.0,7.6,95,-99.99,,,-99.99,WSDL version 420,2013-01-31 03:12:00,
2013-01-30 22:18:00,53.4,51.9,28.20,SW,223,4.6,7.6,95,-99.99,,,-99.99,WSDL version 420,2013-01-31 03:18:00,
2013-01-30 22:24:00,53.3,51.6,28.20,SSW,208,4.0,5.4,94,-99.99,,,-99.99,WSDL version 420,2013-01-31 03:24:00,
2013-01-30 22:30:00,53.3,51.7,28.20,WSW,238,3.2,4.7,95,-99.99,,,-99.99,WSDL version 420,2013-01-31 03:30:00,
2013-01-30 22:36:00,52.7,50.8,28.20,SW,223,3.5,8.5,93,-99.99,,,-99.99,WSDL version 420,2013-01-31 03:36:00,
2013-01-30 22:42:00,52.2,49.5,28.20,SW,231,2.8,8.5,90,-99.99,,,-99.99,WSDL version 420,2013-01-31 03:42:00,
2013-01-30 22:50:00,51.6,47.9,28.17,SSW,204,4.7,6.0,87,-99.99,,,-99.99,WSDL version 420,2013-01-31 03:50:00,
2013-01-30 22:56:00,51.4,47.6,28.17,WSW,253,2.3,7.2,87,-99.99,,,-99.99,WSDL version 420,2013-01-31 03:56:00,
2013-01-30 23:02:00,51.2,47.4,28.20,West,261,2.8,4.3,87,-99.99,,,-99.99,WSDL version 420,2013-01-31 04:02:00,
2013-01-30 23:08:00,50.7,46.7,28.20,West,268,4.5,5.6,85,-99.99,,,-99.99,WSDL version 420,2013-01-31 04:08:00,
2013-01-30 23:14:00,50.4,45.9,28.23,West,261,2.9,5.6,84,-99.99,,,-99.99,WSDL version 420,2013-01-31 04:14:00,
2013-01-30 23:20:00,50.1,45.1,28.23,WSW,238,4.7,5.6,83,-99.99,,,-99.99,WSDL version 420,2013-01-31 04:20:00,
2013-01-30 23:26:00,49.8,45.0,28.23,SW,216,4.4,5.4,84,-99.99,,,-99.99,WSDL version 420,2013-01-31 04:26:00,
2013-01-30 23:32:00,49.6,45.0,28.23,WNW,298,5.0,7.4,84,-99.99,,,-99.99,WSDL version 420,2013-01-31 04:32:00,
2013-01-30 23:38:00,49.3,44.9,28.23,WNW,291,1.6,6.0,85,-99.99,,,-99.99,WSDL version 420,2013-01-31 04:38:00,
2013-01-30 23:44:00,49.4,45.4,28.20,South,171,1.2,4.0,87,-99.99,,,-99.99,WSDL version 420,2013-01-31 04:44:00,
2013-01-30 23:50:00,49.3,45.7,28.20,WNW,283,2.0,3.1,87,-99.99,,,-99.99,WSDL version 420,2013-01-31 04:50:00,
2013-01-30 23:56:00,49.1,45.8,28.20,SSW,201,1.3,3.8,88,-99.99,,,-99.99,WSDL version 420,2013-01-31 04:56:00,